Precipitable_Water
0.46 0.46 0.45 0.45 0.45 0.44 0.44 0.44 0.44 0.44 0.44 0.44 0.44 0.44 0.44 0.44 0.44 0.45 0.46 0.46 0.45 0.44 0.43 0.41 0.42 0.42 0.42 0.43 0.45 0.45 0.44 0.34 0.27 0.24 0.24 0.22 0.31 0.39 0.37 0.35 0.36 0.34 0.39 0.35 0.33 0.28 0.24 0.26 0.24 0.27 0.25 0.24 0.20 0.18 0.25 0.24 0.24 0.22 0.14 0.12 0.09 0.09 0.09 0.11 0.10 0.12 0.17 0.18 0.19 0.21 0.23 0.23 0.21 0.23 0.28 0.54 0.66 0.81 0.80 0.74 0.85 0.95 0.91 0.95 1.06 1.09 1.14 1.20
0.46 0.45 0.45 0.45 0.45 0.45 0.44 0.44 0.43 0.43 0.42 0.43 0.43 0.44 0.44 0.44 0.44 0.44 0.46 0.46 0.45 0.44 0.43 0.43 0.42 0.42 0.41 0.41 0.43 0.44 0.40 0.29 0.21 0.20 0.21 0.34 0.41 0.41 0.41 0.36 0.38 0.35 0.40 0.29 0.26 0.24 0.21 0.20 0.22 0.23 0.19 0.17 0.27 0.16 0.25 0.20 0.27 0.17 0.15 0.13 0.08 0.10 0.11 0.14 0.14 0.15 0.16 0.18 0.21 0.22 0.24 0.23 0.22 0.23 0.26 0.28 0.48 0.70 0.68 0.72 0.80 0.80 0.90 1.01 1.06 1.10 1.09 1.15
0.45 0.45 0.45 0.45 0.45 0.45 0.44 0.44 0.43 0.43 0.42 0.41 0.42 0.42 0.43 0.44 0.44 0.44 0.44 0.44 0.45 0.44 0.44 0.43 0.44 0.42 0.40 0.41 0.41 0.43 0.36 0.22 0.19 0.17 0.35 0.50 0.47 0.44 0.43 0.38 0.40 0.38 0.32 0.24 0.26 0.25 0.21 0.20 0.21 0.20 0.18 0.15 0.21 0.17 0.21 0.20 0.23 0.22 0.15 0.11 0.10 0.12 0.14 0.15 0.15 0.16 0.20 0.22 0.21 0.21 0.23 0.23 0.24 0.24 0.29 0.29 0.42 0.67 0.66 0.64 0.71 0.72 0.74 0.85 0.99 1.05 1.09 1.10
0.44 0.44 0.44 0.44 0.44 0.44 0.44 0.44 0.43 0.43 0.42 0.42 0.42 0.43 0.42 0.43 0.43 0.43 0.43 0.43 0.44 0.44 0.45 0.44 0.44 0.44 0.42 0.40 0.42 0.41 0.31 0.18 0.15 0.27 0.42 0.51 0.45 0.49 0.45 0.42 0.43 0.38 0.34 0.29 0.27 0.24 0.24 0.23 0.20 0.18 0.16 0.14 0.18 0.21 0.16 0.22 0.19 0.23 0.18 0.12 0.11 0.15 0.13 0.15 0.18 0.19 0.21 0.23 0.22 0.22 0.23 0.22 0.24 0.24 0.28 0.37 0.34 0.48 0.67 0.79 0.70 0.69 0.77 0.85 0.94 0.98 1.01 1.03
0.43 0.43 0.43 0.43 0.43 0.43 0.43 0.42 0.42 0.42 0.42 0.42 0.42 0.42 0.42 0.41 0.41 0.42 0.42 0.42 0.42 0.42 0.44 0.45 0.44 0.44 0.43 0.43 0.42 0.41 0.22 0.09 0.29 0.40 0.46 0.47 0.48 0.53 0.46 0.44 0.43 0.34 0.32 0.31 0.27 0.25 0.23 0.20 0.19 0.19 0.16 0.12 0.17 0.19 0.18 0.22 0.25 0.24 0.18 0.17 0.17 0.18 0.15 0.18 0.20 0.21 0.22 0.24 0.23 0.23 0.22 0.22 0.25 0.25 0.26 0.32 0.28 0.33 0.55 0.79 0.88 0.87 0.86 0.85 0.85 0.92 0.99 0.98
0.43 0.43 0.43 0.42 0.42 0.42 0.42 0.41 0.41 0.41 0.41 0.41 0.41 0.41 0.41 0.41 0.41 0.41 0.41 0.41 0.40 0.41 0.41 0.43 0.44 0.43 0.44 0.44 0.43 0.35 0.17 0.07 0.32 0.30 0.45 0.48 0.55 0.57 0.49 0.48 0.41 0.35 0.33 0.29 0.24 0.22 0.20 0.19 0.18 0.15 0.14 0.12 0.14 0.13 0.17 0.22 0.25 0.15 0.20 0.19 0.20 0.21 0.17 0.20 0.21 0.21 0.22 0.22 0.22 0.21 0.23 0.24 0.23 0.22 0.24 0.27 0.28 0.32 0.63 0.82 0.94 0.98 0.97 0.92 0.89 0.89 0.91 1.01
0.43 0.44 0.43 0.43 0.43 0.42 0.42 0.42 0.40 0.40 0.40 0.40 0.41 0.41 0.41 0.41 0.40 0.41 0.40 0.40 0.39 0.40 0.40 0.41 0.42 0.43 0.43 0.43 0.44 0.29 0.16 0.12 0.13 0.17 0.24 0.49 0.59 0.56 0.53 0.54 0.51 0.39 0.34 0.27 0.24 0.20 0.20 0.17 0.17 0.14 0.14 0.13 0.15 0.15 0.19 0.19 0.25 0.20 0.15 0.19 0.19 0.22 0.20 0.23 0.22 0.22 0.21 0.22 0.22 0.24 0.24 0.22 0.22 0.20 0.23 0.26 0.29 0.35 0.57 0.73 0.85 1.01 1.07 1.05 0.89 0.93 1.04 1.19
0.43 0.43 0.43 0.43 0.43 0.42 0.42 0.42 0.40 0.40 0.40 0.40 0.39 0.40 0.39 0.40 0.39 0.40 0.40 0.40 0.39 0.39 0.39 0.40 0.41 0.42 0.44 0.34 0.24 0.18 0.17 0.13 0.16 0.26 0.42 0.53 0.57 0.54 0.56 0.59 0.53 0.46 0.35 0.28 0.23 0.20 0.20 0.18 0.15 0.17 0.14 0.10 0.15 0.14 0.17 0.19 0.21 0.18 0.15 0.18 0.20 0.22 0.22 0.23 0.23 0.22 0.20 0.20 0.23 0.22 0.21 0.21 0.22 0.21 0.22 0.23 0.27 0.38 0.52 0.71 0.78 0.94 1.04 1.01 0.98 1.06 1.16 1.10
0.44 0.44 0.44 0.44 0.43 0.42 0.43 0.42 0.41 0.40 0.40 0.40 0.40 0.39 0.39 0.38 0.39 0.38 0.39 0.39 0.39 0.38 0.39 0.40 0.41 0.41 0.45 0.35 0.22 0.15 0.11 0.18 0.27 0.43 0.55 0.51 0.52 0.51 0.50 0.46 0.54 0.45 0.39 0.35 0.28 0.23 0.20 0.19 0.17 0.16 0.11 0.12 0.18 0.15 0.17 0.15 0.14 0.18 0.16 0.19 0.19 0.19 0.21 0.22 0.21 0.19 0.18 0.18 0.21 0.20 0.20 0.22 0.23 0.24 0.21 0.23 0.27 0.47 0.60 0.68 0.83 0.95 0.95 0.94 1.04 1.12 1.10 1.10
0.43 0.44 0.44 0.43 0.43 0.43 0.42 0.42 0.41 0.40 0.39 0.39 0.39 0.40 0.40 0.39 0.38 0.38 0.37 0.38 0.38 0.39 0.38 0.41 0.42 0.41 0.33 0.26 0.20 0.12 0.17 0.25 0.43 0.52 0.55 0.54 0.51 0.44 0.44 0.47 0.48 0.44 0.38 0.36 0.31 0.24 0.19 0.19 0.17 0.19 0.21 0.17 0.18 0.17 0.21 0.17 0.14 0.21 0.20 0.20 0.18 0.19 0.19 0.19 0.17 0.17 0.18 0.16 0.19 0.19 0.19 0.20 0.23 0.22 0.19 0.29 0.46 0.58 0.62 0.68 0.83 0.77 0.79 0.95 1.03 1.04 1.06 1.01
0.43 0.43 0.43 0.43 0.42 0.42 0.42 0.41 0.41 0.41 0.40 0.39 0.39 0.39 0.40 0.40 0.39 0.38 0.37 0.37 0.37 0.37 0.37 0.40 0.43 0.38 0.27 0.27 0.13 0.10 0.21 0.23 0.43 0.53 0.55 0.51 0.47 0.40 0.37 0.40 0.44 0.41 0.38 0.36 0.32 0.26 0.22 0.21 0.23 0.23 0.21 0.21 0.21 0.19 0.21 0.21 0.24 0.21 0.21 0.20 0.17 0.17 0.17 0.17 0.17 0.17 0.17 0.15 0.17 0.18 0.18 0.20 0.22 0.22 0.21 0.22 0.52 0.65 0.62 0.70 0.80 0.80 0.83 0.94 0.97 1.03 1.01 0.99
0.42 0.42 0.42 0.42 0.42 0.41 0.41 0.40 0.40 0.40 0.39 0.38 0.38 0.38 0.38 0.38 0.38 0.37 0.37 0.37 0.37 0.38 0.37 0.40 0.42 0.39 0.31 0.21 0.14 0.11 0.26 0.34 0.42 0.49 0.54 0.48 0.42 0.42 0.44 0.45 0.46 0.42 0.37 0.31 0.33 0.30 0.23 0.22 0.26 0.23 0.17 0.26 0.19 0.23 0.22 0.25 0.21 0.21 0.20 0.15 0.16 0.17 0.15 0.17 0.16 0.17 0.17 0.15 0.17 0.18 0.17 0.17 0.20 0.20 0.22 0.36 0.56 0.68 0.68 0.69 0.73 0.74 0.83 0.93 0.98 1.05 1.07 1.03
0.41 0.41 0.41 0.41 0.41 0.40 0.40 0.39 0.39 0.38 0.38 0.38 0.37 0.37 0.37 0.37 0.35 0.35 0.35 0.36 0.37 0.37 0.39 0.42 0.39 0.37 0.23 0.12 0.12 0.19 0.23 0.25 0.32 0.37 0.41 0.43 0.42 0.45 0.47 0.48 0.49 0.48 0.43 0.35 0.33 0.32 0.27 0.24 0.29 0.25 0.29 0.27 0.25 0.20 0.26 0.27 0.24 0.22 0.20 0.16 0.14 0.14 0.13 0.16 0.17 0.17 0.16 0.16 0.17 0.17 0.11 0.14 0.18 0.22 0.28 0.50 0.52 0.66 0.64 0.64 0.65 0.69 0.82 0.90 0.95 0.95 0.99 1.06
0.41 0.40 0.40 0.40 0.40 0.40 0.39 0.39 0.38 0.39 0.39 0.38 0.37 0.36 0.36 0.35 0.34 0.34 0.35 0.34 0.36 0.38 0.41 0.45 0.43 0.33 0.23 0.12 0.13 0.16 0.21 0.24 0.25 0.24 0.31 0.40 0.37 0.38 0.44 0.48 0.50 0.50 0.49 0.41 0.38 0.33 0.26 0.26 0.32 0.32 0.33 0.27 0.25 0.32 0.25 0.25 0.24 0.18 0.19 0.18 0.13 0.12 0.11 0.16 0.17 0.18 0.14 0.17 0.17 0.17 0.11 0.13 0.17 0.22 0.29 0.54 0.55 0.51 0.52 0.58 0.62 0.70 0.81 0.91 0.86 0.91 0.82 0.90
0.41 0.40 0.40 0.41 0.40 0.40 0.39 0.39 0.38 0.39 0.39 0.39 0.37 0.37 0.36 0.33 0.34 0.34 0.36 0.36 0.36 0.39 0.39 0.46 0.42 0.29 0.17 0.14 0.22 0.24 0.32 0.37 0.26 0.23 0.24 0.29 0.33 0.34 0.38 0.45 0.45 0.48 0.47 0.43 0.39 0.33 0.29 0.26 0.29 0.28 0.26 0.32 0.30 0.25 0.22 0.20 0.20 0.19 0.15 0.12 0.15 0.12 0.13 0.16 0.18 0.18 0.15 0.17 0.18 0.17 0.13 0.13 0.16 0.20 0.29 0.56 0.59 0.56 0.48 0.52 0.62 0.70 0.78 0.84 0.82 0.82 0.82 0.90
0.43 0.41 0.42 0.41 0.40 0.40 0.40 0.40 0.39 0.39 0.39 0.39 0.37 0.36 0.35 0.35 0.37 0.41 0.40 0.38 0.40 0.42 0.45 0.33 0.33 0.27 0.16 0.13 0.21 0.37 0.34 0.26 0.28 0.40 0.43 0.31 0.27 0.27 0.41 0.41 0.44 0.44 0.43 0.40 0.41 0.34 0.31 0.29 0.22 0.25 0.27 0.28 0.25 0.22 0.20 0.18 0.18 0.18 0.15 0.12 0.12 0.14 0.14 0.14 0.16 0.18 0.18 0.17 0.18 0.17 0.13 0.15 0.16 0.21 0.29 0.55 0.55 0.55 0.47 0.50 0.58 0.69 0.76 0.77 0.77 0.81 0.85 0.87
0.43 0.43 0.42 0.41 0.40 0.40 0.40 0.40 0.40 0.40 0.40 0.38 0.36 0.34 0.36 0.40 0.47 0.45 0.47 0.44 0.43 0.44 0.41 0.25 0.36 0.38 0.10 0.18 0.30 0.24 0.26 0.38 0.45 0.46 0.46 0.46 0.34 0.30 0.37 0.39 0.37 0.37 0.38 0.37 0.37 0.33 0.29 0.26 0.28 0.27 0.28 0.23 0.25 0.24 0.17 0.14 0.14 0.15 0.17 0.13 0.15 0.13 0.14 0.13 0.17 0.19 0.20 0.19 0.17 0.19 0.16 0.16 0.17 0.20 0.26 0.51 0.55 0.49 0.45 0.48 0.60 0.68 0.72 0.73 0.76 0.79 0.82 0.80
0.43 0.42 0.42 0.41 0.40 0.40 0.40 0.40 0.40 0.40 0.39 0.37 0.36 0.33 0.35 0.48 0.53 0.51 0.51 0.49 0.51 0.46 0.47 0.49 0.43 0.23 0.11 0.19 0.13 0.15 0.32 0.32 0.38 0.40 0.41 0.44 0.45 0.37 0.35 0.36 0.39 0.37 0.35 0.33 0.36 0.29 0.30 0.25 0.28 0.22 0.24 0.23 0.23 0.21 0.15 0.12 0.13 0.13 0.14 0.13 0.13 0.14 0.15 0.14 0.14 0.18 0.19 0.20 0.18 0.19 0.18 0.17 0.18 0.20 0.23 0.37 0.51 0.46 0.40 0.47 0.61 0.63 0.67 0.67 0.71 0.72 0.71 0.70
0.42 0.42 0.42 0.41 0.40 0.40 0.40 0.41 0.41 0.40 0.38 0.36 0.36 0.39 0.49 0.54 0.54 0.52 0.43 0.45 0.32 0.24 0.15 0.20 0.20 0.09 0.08 0.21 0.31 0.33 0.32 0.33 0.37 0.37 0.35 0.42 0.47 0.43 0.39 0.41 0.40 0.36 0.28 0.26 0.29 0.29 0.29 0.26 0.26 0.22 0.17 0.19 0.20 0.20 0.18 0.18 0.18 0.17 0.16 0.15 0.14 0.12 0.12 0.13 0.16 0.19 0.20 0.19 0.18 0.18 0.17 0.17 0.18 0.19 0.21 0.29 0.45 0.42 0.42 0.58 0.63 0.64 0.68 0.65 0.66 0.66 0.62 0.64
0.42 0.42 0.41 0.40 0.39 0.39 0.40 0.40 0.40 0.39 0.37 0.29 0.28 0.33 0.38 0.24 0.25 0.23 0.43 0.38 0.25 0.20 0.18 0.22 0.26 0.23 0.22 0.21 0.23 0.34 0.39 0.39 0.32 0.38 0.42 0.50 0.46 0.40 0.37 0.37 0.35 0.35 0.29 0.22 0.26 0.27 0.30 0.21 0.18 0.16 0.18 0.22 0.23 0.22 0.22 0.22 0.21 0.19 0.18 0.16 0.15 0.14 0.13 0.16 0.17 0.19 0.22 0.19 0.18 0.19 0.20 0.19 0.19 0.20 0.21 0.25 0.40 0.42 0.49 0.52 0.55 0.56 0.60 0.62 0.62 0.60 0.61 0.63
0.41 0.40 0.40 0.39 0.39 0.39 0.39 0.39 0.39 0.38 0.37 0.32 0.28 0.23 0.18 0.19 0.15 0.15 0.22 0.24 0.26 0.27 0.23 0.21 0.22 0.18 0.15 0.17 0.23 0.25 0.25 0.28 0.33 0.34 0.41 0.52 0.49 0.40 0.33 0.33 0.31 0.25 0.26 0.28 0.25 0.31 0.28 0.21 0.18 0.21 0.23 0.24 0.24 0.25 0.23 0.22 0.21 0.20 0.18 0.16 0.15 0.15 0.12 0.16 0.17 0.20 0.23 0.19 0.19 0.22 0.21 0.21 0.21 0.22 0.22 0.24 0.35 0.33 0.41 0.48 0.50 0.52 0.55 0.59 0.56 0.56 0.62 0.68
0.40 0.40 0.39 0.38 0.39 0.38 0.39 0.39 0.38 0.37 0.35 0.32 0.26 0.21 0.25 0.28 0.36 0.37 0.33 0.18 0.23 0.25 0.26 0.23 0.26 0.23 0.22 0.21 0.24 0.26 0.27 0.22 0.26 0.29 0.36 0.40 0.41 0.33 0.34 0.30 0.26 0.22 0.27 0.28 0.27 0.24 0.20 0.17 0.20 0.24 0.27 0.27 0.26 0.25 0.24 0.21 0.20 0.21 0.18 0.17 0.15 0.14 0.16 0.17 0.18 0.20 0.23 0.22 0.20 0.23 0.21 0.21 0.23 0.23 0.26 0.23 0.29 0.31 0.37 0.42 0.45 0.48 0.52 0.55 0.57 0.59 0.65 0.69
0.40 0.39 0.39 0.39 0.38 0.38 0.38 0.37 0.36 0.34 0.29 0.26 0.21 0.24 0.30 0.38 0.46 0.51 0.42 0.30 0.20 0.24 0.23 0.22 0.21 0.20 0.17 0.20 0.25 0.30 0.19 0.17 0.16 0.27 0.34 0.38 0.36 0.35 0.35 0.29 0.26 0.26 0.28 0.27 0.21 0.19 0.17 0.18 0.22 0.26 0.28 0.26 0.24 0.23 0.22 0.21 0.21 0.19 0.19 0.17 0.14 0.16 0.14 0.11 0.16 0.20 0.23 0.22 0.21 0.22 0.22 0.23 0.25 0.27 0.29 0.34 0.30 0.33 0.42 0.46 0.46 0.46 0.44 0.48 0.50 0.55 0.60 0.63
0.40 0.39 0.39 0.39 0.38 0.36 0.37 0.35 0.35 0.35 0.30 0.26 0.23 0.30 0.41 0.45 0.46 0.48 0.35 0.21 0.16 0.20 0.22 0.23 0.24 0.23 0.19 0.15 0.24 0.24 0.17 0.15 0.18 0.20 0.36 0.36 0.32 0.40 0.34 0.31 0.26 0.26 0.24 0.26 0.24 0.20 0.17 0.21 0.25 0.26 0.25 0.24 0.22 0.22 0.20 0.18 0.16 0.18 0.18 0.17 0.16 0.15 0.15 0.14 0.15 0.19 0.23 0.25 0.26 0.25 0.23 0.21 0.26 0.25 0.26 0.34 0.38 0.31 0.38 0.51 0.53 0.53 0.51 0.50 0.57 0.64 0.65 0.61
0.40 0.39 0.39 0.38 0.37 0.37 0.34 0.34 0.27 0.27 0.29 0.22 0.27 0.41 0.44 0.44 0.46 0.48 0.31 0.23 0.22 0.20 0.31 0.31 0.36 0.29 0.29 0.37 0.30 0.19 0.19 0.18 0.17 0.19 0.32 0.36 0.35 0.34 0.31 0.34 0.29 0.23 0.23 0.26 0.26 0.24 0.21 0.26 0.29 0.27 0.25 0.24 0.22 0.20 0.19 0.18 0.15 0.16 0.18 0.17 0.17 0.16 0.13 0.15 0.18 0.21 0.20 0.20 0.25 0.24 0.18 0.16 0.25 0.30 0.28 0.34 0.34 0.26 0.38 0.42 0.42 0.45 0.50 0.56 0.54 0.56 0.68 0.73
0.39 0.39 0.38 0.37 0.37 0.35 0.34 0.23 0.25 0.27 0.22 0.18 0.29 0.41 0.42 0.44 0.48 0.48 0.32 0.18 0.12 0.17 0.28 0.22 0.36 0.23 0.34 0.24 0.26 0.21 0.22 0.14 0.17 0.19 0.29 0.35 0.40 0.37 0.35 0.29 0.28 0.22 0.25 0.25 0.25 0.25 0.24 0.29 0.29 0.26 0.25 0.24 0.23 0.21 0.21 0.20 0.16 0.15 0.15 0.18 0.16 0.15 0.16 0.17 0.20 0.21 0.18 0.18 0.25 0.28 0.18 0.14 0.24 0.26 0.32 0.34 0.32 0.28 0.37 0.41 0.46 0.50 0.52 0.53 0.54 0.59 0.65 0.69
0.39 0.38 0.37 0.37 0.37 0.37 0.20 0.14 0.31 0.26 0.16 0.21 0.36 0.40 0.42 0.44 0.49 0.44 0.24 0.14 0.10 0.22 0.21 0.31 0.31 0.28 0.32 0.31 0.29 0.24 0.09 0.10 0.21 0.23 0.24 0.33 0.32 0.40 0.31 0.28 0.28 0.28 0.30 0.29 0.26 0.22 0.25 0.26 0.27 0.27 0.25 0.23 0.22 0.19 0.20 0.20 0.17 0.14 0.17 0.17 0.18 0.18 0.18 0.20 0.22 0.23 0.22 0.26 0.28 0.27 0.23 0.16 0.16 0.26 0.38 0.39 0.31 0.32 0.34 0.39 0.45 0.50 0.52 0.54 0.60 0.65 0.68 0.72
0.38 0.37 0.36 0.36 0.37 0.37 0.28 0.29 0.24 0.17 0.16 0.25 0.38 0.40 0.42 0.43 0.44 0.45 0.25 0.09 0.07 0.27 0.22 0.30 0.29 0.39 0.30 0.34 0.33 0.20 0.13 0.24 0.15 0.19 0.21 0.27 0.33 0.35 0.32 0.28 0.25 0.25 0.27 0.27 0.18 0.26 0.26 0.24 0.23 0.22 0.22 0.21 0.19 0.20 0.23 0.23 0.18 0.16 0.20 0.22 0.22 0.23 0.23 0.24 0.24 0.23 0.24 0.24 0.19 0.22 0.27 0.19 0.18 0.28 0.41 0.40 0.28 0.29 0.31 0.36 0.41 0.48 0.54 0.58 0.63 0.68 0.72 0.78
0.36 0.36 0.36 0.36 0.37 0.38 0.38 0.30 0.24 0.15 0.21 0.28 0.32 0.38 0.40 0.40 0.35 0.25 0.16 0.07 0.21 0.20 0.34 0.25 0.37 0.31 0.29 0.34 0.29 0.25 0.20 0.21 0.16 0.29 0.27 0.26 0.31 0.33 0.26 0.28 0.30 0.29 0.30 0.28 0.21 0.26 0.27 0.25 0.24 0.25 0.23 0.19 0.23 0.23 0.23 0.22 0.17 0.22 0.26 0.28 0.28 0.28 0.28 0.27 0.25 0.24 0.25 0.21 0.17 0.20 0.23 0.17 0.18 0.29 0.33 0.40 0.35 0.29 0.30 0.37 0.42 0.49 0.54 0.61 0.65 0.71 0.77 0.82
0.36 0.36 0.36 0.36 0.35 0.32 0.31 0.34 0.23 0.23 0.26 0.30 0.31 0.35 0.35 0.32 0.25 0.12 0.10 0.07 0.26 0.15 0.24 0.27 0.25 0.23 0.25 0.23 0.26 0.27 0.21 0.20 0.22 0.29 0.30 0.22 0.26 0.31 0.33 0.38 0.32 0.30 0.27 0.28 0.27 0.28 0.30 0.30 0.30 0.25 0.21 0.23 0.23 0.24 0.24 0.24 0.23 0.28 0.27 0.25 0.25 0.25 0.25 0.26 0.26 0.25 0.22 0.17 0.17 0.21 0.23 0.21 0.19 0.25 0.29 0.29 0.30 0.37 0.39 0.41 0.46 0.51 0.56 0.61 0.68 0.73 0.77 0.83
0.35 0.36 0.36 0.38 0.27 0.31 0.31 0.21 0.23 0.27 0.29 0.32 0.33 0.29 0.22 0.20 0.13 0.09 0.05 0.07 0.17 0.20 0.24 0.23 0.22 0.25 0.22 0.20 0.20 0.22 0.23 0.22 0.22 0.28 0.24 0.26 0.26 0.29 0.30 0.30 0.34 0.29 0.27 0.26 0.24 0.26 0.27 0.28 0.26 0.26 0.27 0.27 0.26 0.23 0.26 0.26 0.26 0.26 0.25 0.24 0.23 0.22 0.25 0.23 0.22 0.23 0.17 0.15 0.19 0.24 0.24 0.24 0.17 0.26 0.34 0.42 0.49 0.47 0.45 0.41 0.43 0.48 0.54 0.63 0.69 0.76 0.82 0.89
0.34 0.35 0.37 0.35 0.37 0.42 0.25 0.22 0.30 0.36 0.31 0.32 0.30 0.16 0.13 0.07 0.13 0.06 0.05 0.22 0.09 0.17 0.18 0.19 0.22 0.22 0.22 0.23 0.22 0.24 0.21 0.21 0.24 0.27 0.22 0.22 0.24 0.25 0.25 0.23 0.25 0.20 0.20 0.20 0.19 0.26 0.23 0.24 0.27 0.27 0.32 0.27 0.26 0.24 0.25 0.26 0.27 0.25 0.25 0.24 0.19 0.20 0.19 0.16 0.17 0.14 0.14 0.15 0.21 0.25 0.26 0.23 0.22 0.32 0.42 0.47 0.50 0.52 0.51 0.49 0.48 0.52 0.57 0.65 0.74 0.82 0.91 0.95
0.34 0.34 0.36 0.37 0.43 0.38 0.38 0.40 0.41 0.34 0.31 0.30 0.18 0.14 0.08 0.06 0.03 0.06 0.07 0.08 0.10 0.19 0.19 0.21 0.19 0.20 0.23 0.23 0.23 0.28 0.28 0.21 0.26 0.28 0.27 0.27 0.27 0.28 0.31 0.28 0.29 0.25 0.18 0.22 0.21 0.21 0.21 0.26 0.26 0.26 0.27 0.29 0.27 0.22 0.22 0.22 0.25 0.26 0.24 0.23 0.20 0.17 0.16 0.14 0.15 0.17 0.16 0.19 0.24 0.26 0.30 0.23 0.30 0.37 0.49 0.48 0.53 0.57 0.55 0.54 0.58 0.62 0.66 0.70 0.75 0.81 0.89 1.00
0.34 0.35 0.31 0.37 0.45 0.46 0.44 0.43 0.41 0.34 0.26 0.23 0.16 0.09 0.07 0.03 0.03 0.18 0.09 0.11 0.11 0.16 0.15 0.16 0.18 0.19 0.22 0.22 0.23 0.29 0.27 0.28 0.26 0.28 0.29 0.27 0.28 0.26 0.29 0.31 0.30 0.27 0.24 0.25 0.20 0.20 0.14 0.15 0.19 0.22 0.21 0.27 0.26 0.25 0.25 0.24 0.25 0.26 0.29 0.25 0.23 0.20 0.17 0.13 0.14 0.13 0.14 0.17 0.24 0.30 0.22 0.21 0.24 0.29 0.52 0.56 0.60 0.60 0.60 0.62 0.67 0.70 0.74 0.81 0.89 0.95 0.97 0.99
0.33 0.33 0.36 0.43 0.50 0.53 0.51 0.45 0.38 0.34 0.25 0.15 0.10 0.06 0.04 0.03 0.04 0.04 0.05 0.08 0.10 0.10 0.08 0.14 0.16 0.17 0.19 0.23 0.26 0.29 0.33 0.30 0.31 0.27 0.28 0.27 0.26 0.27 0.27 0.27 0.30 0.30 0.29 0.21 0.25 0.22 0.18 0.17 0.22 0.23 0.25 0.27 0.26 0.29 0.29 0.27 0.26 0.28 0.29 0.29 0.24 0.21 0.24 0.16 0.18 0.18 0.18 0.18 0.20 0.25 0.24 0.35 0.32 0.55 0.64 0.64 0.64 0.62 0.65 0.66 0.69 0.71 0.78 0.82 0.82 0.80 0.84 0.92
0.32 0.35 0.44 0.44 0.47 0.56 0.52 0.48 0.41 0.32 0.21 0.11 0.07 0.05 0.04 0.04 0.03 0.13 0.12 0.16 0.13 0.09 0.08 0.08 0.15 0.17 0.18 0.21 0.28 0.27 0.32 0.32 0.35 0.30 0.28 0.28 0.30 0.28 0.31 0.31 0.30 0.31 0.27 0.22 0.26 0.19 0.19 0.16 0.23 0.26 0.27 0.27 0.28 0.30 0.28 0.29 0.20 0.26 0.26 0.22 0.24 0.28 0.24 0.21 0.21 0.24 0.24 0.21 0.19 0.31 0.29 0.35 0.48 0.49 0.60 0.62 0.59 0.60 0.64 0.66 0.68 0.71 0.76 0.80 0.79 0.81 0.87 0.92
0.31 0.44 0.41 0.47 0.52 0.59 0.54 0.53 0.51 0.40 0.18 0.09 0.06 0.05 0.06 0.06 0.08 0.09 0.13 0.12 0.12 0.11 0.10 0.04 0.09 0.16 0.17 0.19 0.22 0.25 0.29 0.32 0.37 0.34 0.28 0.32 0.28 0.30 0.31 0.32 0.36 0.34 0.33 0.30 0.26 0.29 0.20 0.18 0.24 0.23 0.23 0.27 0.32 0.32 0.31 0.30 0.28 0.27 0.21 0.24 0.31 0.33 0.30 0.22 0.17 0.20 0.18 0.16 0.20 0.28 0.26 0.29 0.28 0.24 0.50 0.54 0.52 0.54 0.58 0.62 0.67 0.72 0.77 0.76 0.79 0.83 0.87 0.90
0.38 0.46 0.48 0.49 0.56 0.62 0.59 0.60 0.57 0.44 0.25 0.14 0.09 0.09 0.17 0.11 0.19 0.18 0.22 0.20 0.17 0.17 0.10 0.07 0.07 0.17 0.17 0.20 0.20 0.23 0.27 0.26 0.32 0.35 0.31 0.33 0.27 0.39 0.34 0.32 0.39 0.36 0.36 0.36 0.29 0.30 0.28 0.18 0.22 0.25 0.26 0.29 0.33 0.31 0.29 0.32 0.33 0.26 0.25 0.34 0.22 0.21 0.18 0.23 0.20 0.15 0.15 0.14 0.16 0.24 0.30 0.30 0.31 0.32 0.42 0.43 0.44 0.49 0.55 0.61 0.64 0.67 0.73 0.77 0.80 0.85 0.91 0.93
0.42 0.45 0.36 0.51 0.65 0.64 0.61 0.63 0.55 0.40 0.29 0.17 0.14 0.13 0.20 0.19 0.23 0.23 0.27 0.25 0.23 0.17 0.08 0.10 0.07 0.14 0.20 0.20 0.22 0.24 0.25 0.24 0.27 0.31 0.30 0.35 0.29 0.41 0.38 0.38 0.36 0.40 0.39 0.37 0.31 0.32 0.32 0.21 0.21 0.27 0.26 0.31 0.31 0.28 0.22 0.25 0.31 0.32 0.32 0.29 0.32 0.26 0.24 0.21 0.20 0.21 0.19 0.17 0.15 0.17 0.25 0.23 0.35 0.38 0.46 0.46 0.50 0.53 0.56 0.57 0.60 0.65 0.70 0.73 0.76 0.83 0.88 0.90
0.36 0.35 0.34 0.58 0.69 0.65 0.64 0.61 0.45 0.36 0.25 0.15 0.17 0.17 0.23 0.20 0.25 0.30 0.31 0.29 0.23 0.17 0.15 0.11 0.14 0.11 0.18 0.22 0.24 0.22 0.24 0.25 0.24 0.27 0.31 0.39 0.34 0.48 0.41 0.46 0.39 0.40 0.40 0.38 0.33 0.35 0.29 0.29 0.20 0.26 0.30 0.29 0.24 0.30 0.25 0.27 0.25 0.26 0.26 0.25 0.27 0.26 0.33 0.30 0.29 0.23 0.20 0.18 0.17 0.17 0.17 0.22 0.34 0.49 0.49 0.50 0.54 0.57 0.58 0.59 0.64 0.67 0.72 0.75 0.77 0.85 0.89 0.88
0.45 0.37 0.37 0.62 0.66 0.65 0.62 0.49 0.33 0.26 0.22 0.26 0.27 0.24 0.27 0.25 0.29 0.29 0.30 0.32 0.28 0.28 0.20 0.17 0.17 0.14 0.17 0.20 0.22 0.25 0.23 0.25 0.29 0.29 0.29 0.32 0.34 0.30 0.44 0.46 0.48 0.39 0.41 0.38 0.34 0.34 0.28 0.28 0.22 0.25 0.25 0.24 0.27 0.36 0.36 0.33 0.32 0.28 0.26 0.24 0.24 0.23 0.22 0.19 0.19 0.29 0.26 0.21 0.19 0.17 0.16 0.25 0.39 0.54 0.53 0.53 0.58 0.62 0.67 0.67 0.68 0.73 0.77 0.75 0.79 0.88 0.91 0.91
0.36 0.25 0.33 0.63 0.64 0.62 0.46 0.29 0.29 0.33 0.27 0.23 0.23 0.28 0.25 0.35 0.29 0.29 0.29 0.31 0.28 0.22 0.28 0.21 0.22 0.19 0.19 0.20 0.24 0.26 0.24 0.24 0.32 0.31 0.35 0.31 0.39 0.36 0.45 0.51 0.50 0.49 0.40 0.32 0.32 0.37 0.34 0.31 0.27 0.25 0.26 0.28 0.32 0.38 0.41 0.40 0.39 0.36 0.32 0.27 0.30 0.27 0.25 0.21 0.16 0.20 0.25 0.25 0.27 0.25 0.20 0.23 0.47 0.56 0.57 0.58 0.62 0.68 0.73 0.74 0.72 0.76 0.75 0.79 0.84 0.90 0.92 0.93
0.33 0.29 0.53 0.62 0.64 0.55 0.41 0.27 0.29 0.27 0.25 0.28 0.35 0.33 0.35 0.32 0.30 0.32 0.28 0.30 0.25 0.29 0.25 0.21 0.21 0.18 0.20 0.21 0.23 0.25 0.27 0.26 0.30 0.29 0.34 0.37 0.39 0.42 0.49 0.52 0.54 0.50 0.48 0.41 0.40 0.42 0.40 0.31 0.27 0.28 0.32 0.35 0.38 0.40 0.40 0.40 0.38 0.34 0.35 0.36 0.32 0.26 0.25 0.23 0.22 0.24 0.22 0.25 0.23 0.24 0.20 0.28 0.50 0.61 0.60 0.62 0.67 0.73 0.76 0.77 0.76 0.77 0.80 0.78 0.80 0.84 0.88 0.91
0.36 0.36 0.41 0.60 0.63 0.56 0.36 0.20 0.20 0.24 0.26 0.31 0.32 0.29 0.35 0.31 0.30 0.28 0.28 0.32 0.29 0.27 0.23 0.24 0.24 0.25 0.24 0.26 0.26 0.25 0.34 0.24 0.32 0.33 0.33 0.40 0.38 0.50 0.50 0.52 0.54 0.50 0.45 0.44 0.37 0.48 0.30 0.35 0.29 0.26 0.25 0.27 0.31 0.34 0.33 0.37 0.36 0.33 0.33 0.37 0.38 0.35 0.32 0.31 0.29 0.30 0.22 0.25 0.25 0.22 0.18 0.26 0.47 0.59 0.62 0.63 0.66 0.68 0.70 0.75 0.78 0.75 0.79 0.82 0.85 0.88 0.90 0.93
0.38 0.41 0.41 0.43 0.50 0.49 0.29 0.31 0.27 0.26 0.26 0.26 0.27 0.25 0.27 0.29 0.34 0.33 0.32 0.30 0.35 0.31 0.27 0.25 0.28 0.30 0.27 0.30 0.30 0.31 0.33 0.29 0.30 0.37 0.38 0.40 0.40 0.49 0.52 0.53 0.56 0.50 0.56 0.56 0.50 0.54 0.38 0.37 0.31 0.24 0.21 0.18 0.18 0.19 0.21 0.24 0.29 0.33 0.36 0.37 0.38 0.34 0.32 0.28 0.23 0.24 0.19 0.25 0.26 0.22 0.23 0.35 0.50 0.56 0.57 0.60 0.62 0.64 0.69 0.72 0.77 0.79 0.78 0.79 0.80 0.84 0.92 0.93
0.30 0.22 0.33 0.35 0.40 0.41 0.39 0.43 0.35 0.31 0.27 0.27 0.25 0.28 0.30 0.27 0.32 0.34 0.36 0.33 0.34 0.33 0.30 0.29 0.29 0.30 0.27 0.26 0.27 0.27 0.29 0.32 0.32 0.34 0.36 0.36 0.41 0.46 0.52 0.53 0.53 0.53 0.57 0.56 0.53 0.50 0.40 0.41 0.37 0.33 0.28 0.25 0.27 0.29 0.35 0.36 0.34 0.28 0.32 0.34 0.35 0.37 0.37 0.32 0.29 0.25 0.20 0.24 0.23 0.25 0.28 0.34 0.41 0.47 0.53 0.57 0.60 0.60 0.61 0.66 0.69 0.72 0.76 0.78 0.78 0.82 0.87 0.93
0.32 0.23 0.25 0.23 0.34 0.33 0.30 0.35 0.32 0.33 0.27 0.33 0.23 0.30 0.27 0.30 0.32 0.31 0.38 0.28 0.35 0.33 0.32 0.28 0.28 0.24 0.26 0.25 0.26 0.26 0.30 0.30 0.33 0.35 0.37 0.39 0.42 0.45 0.52 0.52 0.52 0.53 0.55 0.54 0.57 0.49 0.42 0.36 0.39 0.38 0.37 0.36 0.37 0.37 0.40 0.38 0.33 0.35 0.33 0.33 0.36 0.35 0.36 0.32 0.27 0.25 0.30 0.26 0.22 0.31 0.35 0.32 0.38 0.46 0.52 0.55 0.57 0.60 0.63 0.65 0.68 0.71 0.74 0.77 0.80 0.82 0.81 0.85
0.22 0.28 0.31 0.34 0.25 0.21 0.24 0.25 0.32 0.28 0.33 0.36 0.27 0.34 0.29 0.28 0.29 0.29 0.35 0.36 0.37 0.36 0.29 0.30 0.29 0.28 0.28 0.27 0.28 0.23 0.26 0.29 0.31 0.29 0.37 0.38 0.42 0.43 0.45 0.48 0.46 0.50 0.52 0.51 0.57 0.48 0.41 0.35 0.41 0.39 0.39 0.42 0.43 0.41 0.42 0.40 0.38 0.37 0.36 0.36 0.34 0.36 0.35 0.31 0.32 0.34 0.33 0.27 0.24 0.34 0.39 0.36 0.42 0.48 0.53 0.56 0.59 0.59 0.61 0.65 0.69 0.73 0.76 0.78 0.79 0.79 0.78 0.79
0.34 0.32 0.33 0.36 0.23 0.26 0.28 0.29 0.32 0.28 0.27 0.31 0.30 0.29 0.28 0.29 0.28 0.33 0.33 0.32 0.32 0.32 0.30 0.25 0.27 0.28 0.27 0.28 0.28 0.26 0.26 0.24 0.27 0.34 0.33 0.35 0.37 0.40 0.38 0.41 0.45 0.48 0.49 0.48 0.49 0.52 0.44 0.39 0.41 0.41 0.39 0.41 0.42 0.42 0.43 0.40 0.41 0.39 0.37 0.37 0.38 0.38 0.38 0.38 0.37 0.39 0.37 0.34 0.37 0.39 0.42 0.41 0.46 0.50 0.55 0.58 0.63 0.63 0.65 0.69 0.71 0.70 0.71 0.75 0.73 0.76 0.78 0.79
0.27 0.27 0.24 0.33 0.29 0.26 0.27 0.28 0.27 0.27 0.25 0.28 0.24 0.25 0.28 0.30 0.31 0.34 0.36 0.32 0.27 0.28 0.33 0.26 0.28 0.29 0.28 0.26 0.26 0.24 0.28 0.27 0.28 0.30 0.37 0.32 0.36 0.38 0.37 0.38 0.37 0.42 0.47 0.46 0.48 0.50 0.42 0.39 0.44 0.42 0.37 0.38 0.42 0.44 0.44 0.42 0.41 0.39 0.42 0.41 0.40 0.41 0.41 0.42 0.42 0.43 0.44 0.41 0.43 0.42 0.41 0.41 0.53 0.59 0.59 0.63 0.65 0.66 0.66 0.64 0.67 0.70 0.72 0.73 0.72 0.78 0.82 0.81
0.37 0.39 0.36 0.25 0.20 0.22 0.24 0.24 0.24 0.24 0.23 0.26 0.24 0.26 0.27 0.29 0.32 0.37 0.32 0.35 0.29 0.29 0.30 0.28 0.30 0.30 0.30 0.28 0.26 0.25 0.28 0.30 0.30 0.30 0.35 0.38 0.32 0.40 0.36 0.38 0.41 0.37 0.42 0.44 0.45 0.47 0.45 0.40 0.47 0.42 0.34 0.35 0.41 0.42 0.42 0.44 0.43 0.41 0.41 0.42 0.41 0.40 0.37 0.40 0.39 0.44 0.40 0.38 0.42 0.42 0.38 0.40 0.52 0.60 0.62 0.65 0.65 0.64 0.63 0.63 0.64 0.66 0.69 0.71 0.72 0.76 0.80 0.81
0.44 0.46 0.43 0.30 0.18 0.22 0.19 0.22 0.22 0.23 0.20 0.26 0.27 0.27 0.26 0.27 0.31 0.34 0.30 0.34 0.33 0.32 0.33 0.32 0.32 0.30 0.29 0.28 0.27 0.28 0.31 0.31 0.32 0.33 0.35 0.38 0.39 0.40 0.41 0.42 0.43 0.39 0.38 0.41 0.48 0.42 0.44 0.42 0.40 0.40 0.35 0.34 0.43 0.44 0.42 0.42 0.40 0.35 0.37 0.42 0.45 0.45 0.46 0.47 0.48 0.50 0.48 0.48 0.39 0.36 0.40 0.50 0.55 0.60 0.59 0.60 0.63 0.64 0.64 0.65 0.65 0.68 0.70 0.71 0.71 0.74 0.80 0.81
Wind_Speed
16 16 16 16 16 16 17 17 17 17 18 18 18 18 18 19 19 19 19 19 19 20 20 20 21 21 21 22 22 22 22 21 21 20 20 20 18 18 19 18 17 18 17 16 15 15 15 15 16 16 15 16 16 16 17 17 17 17 17 17 17 17 16 15 16 16 15 15 14 14 13 12 14 13 13 13 12 13 14 14 14 15 14 14 14 13 14 14
15 15 16 16 16 16 17 17 17 17 18 18 18 18 18 18 19 19 19 19 19 19 20 20 20 20 21 21 21 21 21 21 21 21 20 18 17 17 18 18 17 18 17 16 16 16 16 16 16 15 15 16 16 16 17 18 17 17 17 18 18 16 16 16 16 16 16 16 16 16 15 13 15 15 13 13 13 13 13 13 13 13 13 13 13 13 14 13
15 16 16 16 16 16 17 17 17 18 18 18 18 18 18 19 19 19 19 19 19 19 19 19 19 19 20 20 20 20 20 20 19 18 17 16 17 17 17 18 17 18 17 16 17 16 16 16 16 16 15 15 16 16 17 18 18 18 17 18 18 15 16 17 17 18 18 18 18 18 16 15 16 16 14 14 14 15 15 15 14 13 14 13 13 14 14 14
15 16 16 16 16 17 17 17 18 18 18 18 18 19 19 19 19 19 19 19 19 19 19 19 19 19 19 19 19 18 18 18 16 16 15 16 17 16 16 17 17 17 16 16 16 16 16 15 15 16 15 16 16 16 17 18 18 18 18 18 17 15 16 17 18 19 19 19 18 18 17 16 17 15 14 14 14 16 17 18 16 15 15 14 14 14 14 14
15 16 16 16 17 17 17 18 18 18 18 19 19 19 19 19 19 19 19 19 19 19 19 19 18 18 18 18 18 17 16 15 15 15 16 16 16 15 15 15 16 16 16 16 16 16 15 15 15 15 15 16 16 16 17 18 17 18 19 19 18 16 17 17 18 19 20 20 19 18 17 17 17 16 15 15 16 16 16 18 18 16 16 15 14 14 14 14
16 16 16 16 17 17 17 18 18 18 19 19 19 19 19 20 20 20 20 19 19 19 19 19 18 18 18 18 17 16 15 15 15 15 16 16 15 14 14 14 15 15 16 15 15 15 15 14 14 15 15 15 16 16 17 18 18 18 19 19 18 18 18 18 19 20 21 20 19 18 18 18 17 17 17 17 18 17 16 16 17 17 16 15 14 14 13 12
16 16 16 17 17 17 17 18 18 18 19 19 19 20 20 20 20 20 20 20 20 19 19 19 19 19 18 18 17 16 15 17 18 16 17 16 14 14 14 14 14 15 16 15 15 15 15 14 14 15 14 15 16 17 17 17 17 18 18 17 18 19 19 20 21 22 22 21 21 20 19 18 18 18 17 17 19 18 16 15 16 17 16 14 13 13 12 10
16 17 17 17 18 18 18 18 18 19 19 19 19 20 20 20 20 20 20 20 20 20 20 19 19 19 18 17 16 16 17 19 18 17 17 16 15 14 14 14 15 15 16 16 16 16 15 15 15 15 14 15 16 16 17 17 17 18 18 17 17 19 20 20 21 22 22 22 22 20 20 20 19 19 18 19 19 17 16 15 15 16 15 14 13 12 11 10
17 17 18 18 18 19 19 19 19 19 20 20 20 20 20 20 20 21 21 21 21 20 20 20 19 19 18 17 16 16 18 18 16 16 15 15 15 15 15 15 16 16 16 16 16 16 16 16 16 15 14 15 15 15 16 16 17 18 18 18 18 19 20 20 20 21 22 22 21 20 21 20 18 17 18 19 17 15 15 14 15 16 15 15 13 12 11 11
18 18 19 19 19 19 20 20 20 20 20 20 21 21 21 20 20 21 21 21 21 21 20 20 19 18 18 17 16 16 18 17 15 15 14 14 15 15 16 16 17 17 16 17 17 17 17 17 17 15 14 14 14 15 15 15 17 17 17 18 19 20 20 19 20 21 21 21 21 21 22 20 17 17 17 17 15 15 14 14 15 15 15 15 13 13 12 11
19 19 20 20 20 20 20 21 21 21 21 21 21 22 21 21 21 21 21 21 21 21 21 20 19 18 18 17 16 17 18 17 16 15 14 14 15 16 17 17 18 18 17 17 18 18 18 17 16 15 15 14 14 14 15 15 16 16 17 17 18 19 19 19 19 20 19 20 21 21 22 20 18 18 17 16 15 14 14 14 15 15 15 14 13 13 13 11
20 20 21 21 21 21 21 21 22 22 22 22 22 23 23 23 23 23 23 23 22 22 21 20 19 19 18 18 19 20 19 18 18 17 17 17 17 18 18 18 19 19 18 18 19 19 18 18 16 16 15 14 13 14 14 15 15 16 16 16 17 17 17 18 19 19 18 19 20 19 21 21 20 19 18 17 15 15 14 15 15 14 15 15 13 14 13 12
21 21 21 21 21 21 22 22 22 22 23 23 23 24 24 24 24 24 24 24 23 22 21 20 20 19 19 19 20 20 20 20 20 20 20 20 20 20 19 19 19 19 19 19 19 19 19 18 17 17 15 13 14 14 14 14 15 16 16 15 16 15 16 17 17 17 17 19 19 18 21 22 22 20 19 18 17 16 15 15 16 14 15 15 15 15 14 13
22 22 22 22 22 22 22 22 22 23 23 24 24 24 24 24 25 25 25 25 24 23 22 21 20 19 18 19 21 22 22 22 21 22 22 21 20 19 19 19 19 19 19 19 19 18 19 19 17 16 16 14 15 15 14 14 14 15 15 15 15 15 16 16 15 15 16 17 18 18 20 22 22 20 19 19 18 17 17 16 16 15 16 16 15 17 15 14
22 22 22 22 22 22 22 23 23 23 23 24 24 24 25 25 25 25 24 24 23 22 21 20 20 19 19 20 22 21 20 20 20 21 21 21 20 20 19 19 19 19 18 19 19 18 17 18 17 16 16 16 15 14 14 14 14 14 14 15 14 14 16 16 15 15 15 16 16 17 19 21 21 20 20 20 19 18 17 17 17 16 17 16 16 17 15 14
23 23 23 23 23 23 23 23 23 23 24 24 25 25 25 25 24 23 23 22 21 20 20 19 19 19 18 19 19 18 18 18 19 19 19 20 21 20 19 19 18 18 18 19 19 18 17 17 17 16 16 16 14 14 14 15 15 14 14 15 15 14 14 14 14 14 15 16 15 17 18 19 19 19 19 20 20 20 19 18 18 17 17 16 16 16 15 14
23 23 23 23 23 23 23 23 23 24 24 24 25 25 24 23 22 21 20 20 20 20 19 19 18 19 19 19 19 19 18 18 18 17 18 19 21 20 19 18 18 17 17 18 18 18 17 17 17 16 15 15 14 13 14 15 15 15 14 14 15 15 14 14 14 13 13 14 15 17 18 19 20 18 18 21 21 21 21 20 19 18 17 16 16 16 16 15
23 24 24 24 24 24 24 24 24 23 24 24 24 24 23 21 19 19 18 18 19 19 19 19 18 19 19 19 19 20 19 19 19 19 19 18 19 21 19 18 17 16 16 17 18 17 17 17 16 16 15 14 14 14 14 15 14 14 14 14 15 15 15 15 15 15 14 14 16 17 18 20 21 19 19 21 22 23 23 21 19 19 18 17 17 17 17 17
23 24 24 24 24 24 23 23 23 23 23 23 23 22 20 19 18 18 18 18 19 19 20 20 19 19 20 19 19 20 20 21 20 20 19 18 18 20 19 18 17 16 16 16 17 18 17 17 16 16 16 15 15 15 16 16 14 14 14 14 15 15 16 15 15 16 15 15 17 18 19 20 21 20 20 22 24 24 23 21 20 20 19 19 19 18 18 18
23 23 24 24 23 23 23 23 22 22 23 22 21 20 18 18 18 18 19 20 21 21 22 23 23 24 24 23 21 21 21 21 20 19 17 17 17 18 18 17 16 15 16 16 17 18 17 17 18 17 17 16 17 17 16 16 15 14 15 15 16 16 16 15 15 17 15 16 18 18 19 19 20 20 20 22 24 24 23 22 22 22 21 21 20 19 19 18
23 23 23 23 23 23 22 22 22 22 21 20 19 18 17 17 17 18 20 21 22 23 24 25 25 26 26 25 23 22 21 21 21 20 19 18 17 17 18 17 15 16 17 17 17 17 17 18 19 18 17 17 16 16 15 15 15 15 15 16 16 16 16 16 16 17 15 15 17 16 17 19 20 20 20 22 24 24 24 23 23 23 23 22 22 20 19 18
22 22 22 22 22 22 22 21 21 21 20 18 17 17 17 17 17 18 19 19 21 22 23 24 24 25 26 26 26 24 22 20 21 21 20 19 18 18 17 16 16 17 16 16 17 17 17 19 19 18 17 16 14 14 14 15 15 15 15 15 16 15 15 16 16 15 14 15 16 15 16 18 19 19 20 21 23 25 25 25 25 24 24 23 22 20 18 18
21 21 21 21 22 21 21 21 21 19 17 17 17 16 17 17 17 18 17 18 19 18 20 22 22 24 24 24 24 24 22 21 21 22 20 19 19 18 17 16 16 16 16 17 18 18 18 18 19 18 17 15 15 15 14 14 15 15 15 15 16 14 13 14 14 13 14 15 15 14 15 17 17 17 18 19 22 23 24 25 25 26 25 24 23 22 20 19
20 20 20 21 21 21 21 20 19 17 16 17 17 17 17 17 17 17 16 17 16 15 17 18 19 20 21 21 21 22 22 22 21 22 21 20 19 18 17 16 15 16 17 18 18 19 19 18 16 15 15 16 16 15 14 14 15 16 17 16 15 15 15 15 13 13 13 14 14 13 14 15 15 15 16 17 19 20 21 22 23 25 25 23 22 22 21 20
19 19 20 20 20 20 20 18 16 15 16 16 16 16 16 16 16 16 15 15 15 13 14 15 15 16 17 17 19 21 21 21 22 21 21 21 19 17 16 16 15 16 17 16 17 18 19 18 15 13 14 14 15 14 14 14 14 15 16 16 16 16 16 15 13 11 12 13 12 11 11 13 13 13 14 15 15 16 17 19 21 22 22 21 21 21 20 19
19 19 19 19 19 19 18 16 15 15 16 15 14 14 15 15 15 14 13 13 13 12 11 12 13 13 13 14 17 18 18 19 21 21 21 22 21 18 16 16 15 15 15 14 16 17 16 16 16 15 14 14 14 15 14 13 13 14 15 15 16 15 15 14 12 11 12 13 12 11 11 13 13 11 12 12 13 14 14 16 19 20 20 20 20 20 19 19
18 18 18 18 17 17 15 14 14 14 14 13 13 14 14 14 14 12 12 12 12 12 10 11 11 11 12 13 15 15 15 16 16 19 22 22 20 19 17 16 15 14 13 13 15 15 14 14 15 15 14 14 14 14 13 12 11 12 12 12 13 14 14 13 12 12 14 14 13 11 10 12 12 10 11 11 12 12 14 15 17 18 18 18 18 18 18 18
17 17 17 16 16 15 15 14 14 13 13 13 13 13 14 13 12 11 10 9 11 11 9 10 10 10 10 11 14 15 14 14 12 15 21 22 21 19 18 18 16 14 14 14 15 14 12 14 15 15 14 14 14 12 11 11 11 11 10 11 12 13 13 12 11 13 13 12 13 12 9 10 11 9 9 10 11 12 13 14 15 15 15 16 16 16 16 17
16 16 15 15 15 15 14 14 14 13 13 13 13 13 13 12 10 9 9 9 11 10 9 10 10 10 9 9 13 15 14 14 13 13 16 21 21 19 17 17 16 14 15 15 15 13 12 14 15 14 14 14 13 12 11 11 11 11 10 10 10 10 10 10 10 12 11 11 14 13 9 9 10 9 8 9 10 11 12 12 13 13 14 14 14 15 16 17
15 15 15 15 14 14 13 13 14 14 13 13 13 13 12 10 9 9 9 10 11 10 10 10 10 10 10 8 11 14 15 15 13 12 14 18 20 18 17 16 14 14 15 14 14 14 13 13 14 14 14 14 13 11 12 13 12 10 9 10 10 9 10 10 10 10 10 12 15 13 10 10 10 9 9 9 9 10 10 11 13 13 14 14 14 15 16 17
15 14 14 14 14 13 12 13 13 13 12 13 13 12 11 10 9 8 9 10 11 11 10 10 10 10 9 8 10 12 14 15 13 13 14 16 17 17 16 16 15 14 14 15 14 14 13 13 14 15 15 13 12 11 12 13 13 11 10 10 10 10 10 9 10 10 11 13 14 13 11 10 10 10 9 9 10 10 11 12 13 14 14 13 13 14 16 17
14 14 15 14 14 13 13 12 12 12 12 12 11 10 10 10 10 10 10 11 10 10 10 11 10 10 10 9 9 11 12 14 14 13 14 15 17 18 18 17 17 14 14 15 15 14 15 15 15 14 15 14 13 12 11 10 11 11 10 10 10 10 9 9 10 10 12 14 13 11 10 11 11 12 11 10 10 10 11 13 13 13 14 13 13 13 15 18
14 14 14 14 13 13 12 12 12 12 11 11 10 9 8 8 10 11 12 11 10 10 10 11 12 12 12 9 9 10 11 13 14 13 13 15 16 18 17 16 17 15 14 14 14 14 14 14 14 14 14 15 14 13 11 10 11 11 11 12 11 10 9 10 10 9 11 13 13 11 10 11 11 11 11 11 10 10 11 12 12 12 13 14 14 14 16 17
14 13 12 12 11 11 11 11 11 11 10 9 9 8 8 9 10 11 11 12 13 12 11 12 13 12 11 10 9 10 10 11 13 13 13 14 16 17 17 16 16 15 13 12 12 13 13 12 14 15 14 13 14 14 12 11 11 11 11 12 12 11 10 10 10 10 10 12 12 11 10 11 11 11 11 11 9 8 8 9 10 10 11 13 13 14 16 16
13 12 10 10 10 10 10 9 9 9 9 8 8 8 10 11 11 10 11 13 12 12 12 12 11 10 10 10 9 9 10 11 13 13 14 15 16 17 17 16 16 15 14 14 12 12 12 13 14 14 13 13 13 13 12 11 11 12 12 11 12 13 11 10 10 10 9 10 11 11 11 11 12 11 11 10 9 7 6 7 7 8 9 10 10 10 12 14
10 9 9 9 8 8 8 7 7 8 8 8 8 10 11 12 11 11 12 12 12 13 13 12 10 10 10 10 9 9 11 12 12 13 14 15 16 16 16 16 16 16 15 15 13 11 11 13 13 13 13 14 14 13 12 12 13 12 12 13 13 12 11 10 10 8 7 9 11 12 12 11 11 11 11 9 8 8 7 7 7 7 7 8 8 8 10 13
9 8 8 8 8 7 6 6 6 7 8 7 8 11 12 12 12 12 13 13 13 13 11 11 11 11 11 11 10 10 11 11 12 13 14 15 15 16 16 16 16 17 17 15 14 13 12 12 13 13 14 15 14 13 11 12 13 12 12 13 12 10 10 10 9 8 7 9 11 11 12 12 11 11 11 10 9 9 9 8 8 7 7 8 8 8 10 12
8 8 8 8 8 7 7 6 7 7 8 8 9 11 11 11 12 13 13 13 13 12 11 12 13 12 12 12 12 12 11 11 12 13 14 14 15 15 16 16 17 18 18 16 15 14 12 12 13 13 14 14 13 13 12 12 12 13 13 12 10 10 11 11 10 9 9 10 10 10 12 13 13 12 12 11 10 11 11 10 9 9 8 8 9 10 11 11
8 7 7 7 7 7 7 7 7 8 8 8 9 10 11 12 13 13 14 13 13 12 12 13 13 13 13 13 13 12 11 12 13 13 14 14 15 15 15 16 16 16 17 17 17 15 13 12 13 13 14 13 12 13 13 13 12 12 12 12 11 11 11 11 11 11 10 10 10 10 10 12 14 13 12 12 12 12 11 11 10 10 9 9 9 11 12 12
7 7 7 7 7 7 7 7 8 7 7 8 10 10 11 12 13 14 15 14 13 13 13 13 14 14 15 15 14 13 12 12 13 13 14 14 14 15 15 15 15 15 16 17 17 16 14 14 14 13 13 13 13 13 14 14 13 12 13 13 12 11 11 11 10 10 10 10 10 10 10 12 13 13 12 12 12 12 11 11 10 10 10 10 10 11 12 11
7 6 7 7 7 7 7 7 7 7 7 9 10 11 12 12 13 15 15 15 14 14 14 14 14 15 15 15 15 14 12 12 12 13 14 14 14 14 14 14 14 14 14 15 16 16 16 16 15 14 13 13 15 15 14 14 14 13 14 14 14 13 12 11 11 11 10 10 11 11 11 12 12 12 12 12 12 11 11 11 10 10 10 9 9 10 11 9
6 6 7 6 6 7 6 7 7 7 8 9 10 11 12 13 13 14 14 14 14 14 14 15 15 15 15 16 16 15 14 13 13 13 13 14 14 14 14 13 13 14 13 15 16 17 16 15 14 14 14 15 16 16 15 14 13 12 12 13 14 14 13 13 12 13 11 10 11 10 10 11 12 12 12 11 10 10 10 11 10 10 9 8 8 8 9 9
5 5 6 5 6 6 6 7 8 8 8 10 11 11 12 12 12 12 13 13 13 13 14 14 15 15 15 16 16 16 15 14 13 13 13 13 14 14 14 14 14 14 13 14 15 16 15 14 14 14 14 14 15 15 15 13 12 11 11 12 12 14 14 14 14 13 12 12 11 10 10 11 11 11 11 10 9 9 9 9 9 9 9 8 8 8 8 9
4 4 4 5 6 6 5 6 7 8 9 9 10 11 11 10 10 11 12 12 12 13 13 14 14 14 14 15 16 17 16 14 12 12 13 13 13 14 13 13 13 14 14 15 16 16 15 15 14 13 12 12 13 13 14 14 13 12 12 12 12 12 12 13 13 11 12 14 13 11 11 12 10 10 11 10 9 8 8 8 8 8 8 8 9 9 9 9
3 3 4 4 5 5 5 5 5 6 8 8 9 10 10 9 10 10 11 12 12 12 13 13 14 14 14 14 15 16 17 16 14 12 12 12 13 13 12 11 12 13 13 14 15 15 16 16 15 14 14 14 14 14 15 16 14 14 13 12 12 11 12 13 13 12 13 14 13 12 12 11 11 11 11 11 10 9 8 7 7 7 8 8 8 8 8 8
3 3 4 4 4 4 4 5 4 5 6 7 8 8 8 8 9 9 9 10 10 10 11 12 12 13 13 13 14 15 16 17 15 13 12 13 13 13 12 11 11 12 12 11 12 14 15 15 16 16 16 17 17 16 16 15 14 14 14 13 13 13 13 13 13 13 14 14 14 14 14 12 12 12 11 11 10 9 8 7 7 7 8 8 7 6 5 5
3 3 3 3 4 4 4 4 4 5 6 6 6 7 6 7 8 8 7 8 9 9 10 10 10 11 13 13 14 14 14 15 16 14 13 13 13 13 13 12 10 11 12 11 11 13 14 15 16 16 16 17 17 16 15 15 15 15 14 14 13 13 13 12 13 14 14 13 14 15 14 13 13 13 12 11 9 9 8 8 8 8 8 8 7 6 4 4
2 3 3 3 3 3 3 4 4 4 5 5 5 6 6 7 7 5 6 6 7 7 7 8 9 10 12 13 13 14 13 13 14 15 14 13 12 12 12 13 11 10 11 11 11 12 14 15 16 15 15 15 15 15 14 14 15 15 14 13 13 13 12 12 14 14 14 14 15 15 13 12 12 12 11 10 10 9 8 7 8 8 7 7 7 6 6 5
2 2 2 2 2 2 3 3 3 4 4 5 5 5 6 7 6 4 4 5 5 5 5 7 9 9 11 12 12 12 13 13 13 15 16 15 14 12 10 11 12 10 10 11 11 11 13 14 16 15 15 14 14 14 14 14 14 14 13 13 13 13 12 12 13 13 12 13 14 13 12 12 12 12 12 10 10 9 8 7 7 7 7 6 6 7 6 5
2 2 2 1 2 3 3 3 3 3 5 5 5 5 5 5 5 4 3 2 2 4 4 5 8 9 10 11 12 12 13 13 14 15 16 15 15 14 11 10 11 11 11 12 12 11 11 13 15 15 14 14 14 14 15 15 15 14 12 12 12 13 12 12 13 13 12 11 11 11 12 12 13 13 11 10 10 8 7 6 6 6 7 6 6 7 6 5
2 2 1 1 2 4 4 4 3 3 4 5 4 4 5 4 4 3 3 2 1 2 3 4 6 8 8 9 11 12 13 14 15 16 17 16 15 15 14 12 11 11 10 11 12 12 11 11 12 13 13 14 14 13 14 14 14 14 13 13 13 13 14 14 14 14 14 13 12 13 14 14 14 13 11 10 10 8 7 7 6 7 7 7 7 8 7 6
2 2 1 1 2 4 4 4 3 3 3 4 3 4 4 4 4 3 3 3 2 2 4 5 5 5 6 7 9 11 13 15 16 17 17 17 17 17 16 15 13 11 11 10 10 11 11 11 10 10 11 12 13 14 13 13 12 13 14 14 15 15 15 15 15 16 16 15 14 14 14 14 14 13 12 11 10 9 9 8 8 7 7 7 8 8 8 7
Wind_Direction
273 273 273 273 273 274 274 274 274 274 274 274 274 274 274 274 274 274 274 275 275 275 276 276 276 277 278 278 279 279 280 278 277 274 268 266 266 263 259 260 257 247 248 252 248 249 252 254 254 254 254 255 258 254 252 255 254 257 258 256 257 256 252 247 243 242 243 248 251 257 265 258 255 261 255 246 241 242 243 243 242 245 250 246 241 233 223 226
274 274 274 274 274 274 275 275 275 275 275 275 275 275 275 275 275 275 275 275 276 276 276 276 277 278 278 279 279 280 280 277 276 272 264 262 263 263 258 256 254 245 245 248 246 247 250 252 252 252 254 255 258 255 252 254 254 256 257 256 256 254 251 246 243 246 246 248 252 256 259 256 255 256 254 249 243 242 245 242 238 241 242 239 235 227 224 227
274 275 275 275 275 275 275 275 276 276 275 276 275 276 276 276 276 276 276 276 276 276 277 277 278 278 279 279 280 281 280 277 275 267 260 262 265 264 256 251 250 243 244 248 247 249 251 251 250 251 254 255 257 254 253 255 254 256 256 257 257 252 251 250 247 248 248 249 251 255 256 256 258 253 249 248 241 238 241 240 236 234 231 231 230 225 226 228
276 276 276 276 276 276 276 276 276 276 276 276 276 276 276 276 276 276 276 276 276 277 277 278 278 279 279 280 281 280 279 277 269 261 260 266 269 264 251 247 246 241 244 249 249 251 252 251 251 253 254 256 258 254 253 254 255 257 254 255 257 252 251 250 248 248 249 250 250 253 256 258 257 251 247 246 242 240 239 239 237 232 224 224 227 227 230 233
277 277 277 278 278 278 278 278 278 278 277 277 276 276 276 276 276 276 276 276 276 277 277 278 278 279 279 280 280 278 277 273 264 261 265 268 269 260 247 243 242 240 244 249 248 249 251 251 252 254 255 258 257 255 257 254 253 258 257 256 256 253 252 249 248 250 250 250 250 251 252 254 254 251 248 242 240 240 240 240 237 234 224 221 224 226 232 234
277 278 278 279 279 279 279 279 279 279 278 278 277 277 276 276 276 276 276 276 276 276 277 277 278 278 278 279 276 274 271 265 263 265 267 268 266 256 244 240 240 242 245 247 248 247 249 251 250 252 256 259 255 255 257 255 254 259 259 258 255 252 250 248 250 251 251 249 247 246 248 251 252 253 249 239 238 241 244 242 235 233 227 224 226 225 228 231
278 279 279 280 280 280 281 281 281 281 280 279 279 278 277 277 277 276 276 276 276 276 276 277 278 278 278 277 273 271 266 264 266 267 267 266 260 250 241 240 242 244 246 247 247 247 247 247 247 250 254 258 255 254 255 256 255 256 259 259 255 252 248 249 251 252 251 247 245 247 248 249 247 250 248 239 243 246 244 241 232 228 225 224 227 223 222 222
279 280 280 281 281 282 282 282 282 282 282 281 280 279 278 278 277 277 276 275 275 276 276 276 277 276 277 274 270 270 266 264 267 267 265 261 255 247 240 243 245 246 248 247 247 247 246 244 244 248 253 256 253 253 254 256 257 255 257 259 257 254 251 251 253 253 252 247 245 247 246 246 246 247 245 242 247 246 239 236 228 221 221 224 224 221 218 216
279 280 280 281 282 282 282 282 282 282 282 281 281 280 279 279 278 277 277 276 275 275 275 275 275 275 274 271 269 269 265 263 266 266 263 258 252 245 242 245 247 247 249 249 248 245 245 244 244 246 251 253 252 254 254 253 258 256 255 258 257 255 254 253 252 252 252 247 243 243 244 245 246 244 244 244 244 239 233 230 222 216 218 222 223 222 219 218
279 280 280 281 282 282 282 282 282 282 281 281 280 280 279 279 278 277 277 276 275 274 274 274 274 274 271 269 267 265 264 263 264 263 260 255 251 247 246 247 247 249 250 249 248 245 246 245 242 244 250 252 250 253 253 251 256 256 255 257 256 256 256 252 251 252 251 247 241 239 242 242 241 240 242 243 236 230 226 221 220 218 218 220 223 224 223 223
279 280 281 281 281 282 282 281 281 281 281 280 279 279 278 277 277 276 276 275 274 274 273 272 273 272 270 269 263 261 264 263 261 260 256 253 252 250 250 249 249 251 252 252 250 249 248 245 241 244 252 253 252 254 254 253 256 258 258 260 259 259 258 251 248 250 247 245 240 235 239 241 238 238 240 238 231 226 220 215 219 220 220 222 223 224 228 229
279 280 281 281 281 282 282 281 281 281 280 280 279 278 278 277 276 275 275 274 273 272 270 270 271 269 270 269 262 261 264 263 260 259 256 255 256 253 251 250 250 251 251 253 254 252 249 245 240 243 250 250 252 256 256 257 259 260 260 261 263 263 260 251 246 246 240 239 238 234 242 242 235 236 238 233 227 225 222 216 219 221 221 223 224 225 231 233
279 280 281 281 281 281 282 282 281 281 280 280 279 278 277 277 276 275 274 272 271 270 268 268 268 268 269 267 263 263 265 263 261 259 258 257 257 255 252 251 251 252 252 251 253 253 248 244 240 242 248 249 251 255 259 261 261 261 260 259 264 266 261 253 248 246 241 238 234 233 243 241 235 239 238 229 223 222 225 224 224 224 223 225 226 228 232 233
279 280 280 280 281 281 282 282 282 282 281 281 280 278 277 277 276 275 273 271 269 267 266 266 267 268 267 265 266 268 265 263 261 258 256 254 254 253 251 249 249 251 252 250 251 252 248 243 241 244 248 249 252 258 262 263 261 261 261 260 262 260 258 257 251 244 241 240 232 231 242 241 238 242 236 229 223 219 224 227 227 227 226 229 231 231 232 231
279 279 279 280 280 281 282 282 282 282 281 281 280 279 279 278 276 274 272 269 268 266 265 265 266 267 268 268 269 268 264 261 260 258 254 250 248 248 246 244 245 248 250 249 249 250 247 241 242 245 248 251 255 258 260 261 261 262 262 263 263 255 255 259 254 241 238 242 235 232 241 242 240 240 232 227 224 221 223 224 225 227 227 230 233 232 230 228
278 279 279 280 280 281 281 282 282 282 282 281 281 280 279 278 276 273 270 267 265 264 263 265 265 265 268 269 269 267 262 260 260 259 255 248 243 243 242 241 243 245 247 248 246 246 244 241 242 243 246 250 251 253 258 261 262 262 260 259 261 256 254 257 253 244 238 238 238 236 240 242 239 238 232 226 224 223 224 224 223 225 227 228 229 230 229 227
277 278 279 279 280 281 282 282 282 282 282 282 281 280 279 277 275 272 269 266 264 263 263 265 265 266 266 265 265 265 261 259 260 259 257 252 243 238 237 239 242 243 244 246 244 243 242 241 242 244 246 247 247 249 256 258 259 260 261 259 258 255 252 251 249 246 241 237 238 240 240 241 240 237 232 227 224 223 224 225 222 224 226 226 227 228 228 227
276 277 278 279 280 281 281 282 282 282 282 282 282 280 276 274 273 271 268 266 265 265 265 265 265 266 266 264 263 261 259 260 261 259 256 253 243 236 235 239 241 240 242 244 243 241 240 241 242 244 247 246 244 245 248 251 251 254 257 258 259 256 250 246 244 245 247 243 242 245 245 244 244 240 234 229 226 224 225 225 222 223 224 226 227 227 227 226
276 277 278 279 280 281 281 281 282 282 282 282 280 277 272 271 272 270 268 268 267 266 266 264 261 262 264 264 262 261 261 262 262 258 252 246 239 234 235 238 239 238 240 241 242 239 237 241 242 241 243 243 242 241 242 245 246 249 252 253 255 256 249 241 240 243 244 246 247 247 247 246 245 243 236 231 228 226 226 225 224 224 225 227 229 229 228 225
277 278 279 280 280 281 281 281 281 282 282 281 278 275 271 273 273 270 269 270 267 265 266 263 260 262 265 264 262 264 265 262 258 253 246 240 234 232 233 237 239 239 238 236 239 239 235 238 241 238 238 239 241 241 241 244 248 252 253 255 254 254 251 243 241 242 237 245 249 243 244 246 245 244 239 231 230 229 227 226 225 225 226 229 229 228 228 225
279 279 280 280 281 281 281 281 281 282 281 277 276 274 270 271 271 271 273 272 270 267 266 264 261 261 262 261 260 262 264 261 255 247 242 239 232 231 234 235 236 239 239 233 236 240 236 238 240 236 235 237 240 241 242 245 249 253 254 257 257 252 251 246 242 242 237 242 248 243 246 249 247 247 244 236 232 230 226 225 226 225 226 229 228 227 227 225
279 280 280 281 281 282 281 281 282 281 278 273 273 272 268 269 270 272 274 275 275 270 266 266 264 263 262 258 256 256 256 256 253 246 239 235 232 231 234 234 234 237 237 233 235 241 241 241 238 233 235 238 243 243 242 245 248 250 251 254 255 251 253 251 244 243 240 242 248 250 251 252 253 252 249 242 237 234 228 224 223 222 223 226 226 226 225 223
279 280 280 281 282 282 281 282 281 278 272 269 271 270 266 270 273 274 275 276 278 274 268 266 264 263 262 257 251 246 246 245 246 244 236 229 229 229 229 232 234 234 234 232 232 236 240 242 237 233 235 238 244 245 241 247 251 248 246 249 251 250 251 249 246 246 246 247 249 253 257 256 257 257 252 247 243 240 234 227 223 221 221 222 222 222 221 220
280 280 281 282 282 281 281 281 278 271 269 270 269 266 265 271 276 277 276 276 281 279 271 267 266 263 261 256 246 238 241 241 238 239 233 225 225 226 228 230 233 234 235 233 231 233 238 239 235 232 234 235 240 243 239 244 251 250 245 243 246 248 244 241 244 250 254 254 248 248 259 260 259 262 257 250 244 239 233 227 223 222 222 222 221 222 222 222
281 281 281 282 282 281 281 278 271 268 271 269 264 263 266 273 277 277 278 281 283 280 275 271 270 267 260 252 241 235 240 240 235 234 230 223 221 225 230 231 232 236 236 233 232 237 240 237 231 229 233 233 235 241 238 237 246 252 245 238 239 243 242 239 243 251 255 254 247 244 254 257 259 264 258 247 237 231 227 223 221 221 221 221 220 220 222 223
282 281 282 282 281 282 279 270 266 271 271 263 258 263 269 275 278 275 278 285 283 279 278 274 271 271 264 250 237 233 239 242 236 231 227 223 221 223 229 233 235 236 233 232 235 241 241 234 228 227 230 231 235 242 240 232 239 251 245 234 233 237 237 237 239 241 243 242 244 247 247 251 259 263 253 239 227 224 223 221 218 217 218 219 219 219 221 222
282 281 282 281 281 281 274 265 268 271 264 256 258 266 271 275 276 274 279 287 282 275 276 272 267 271 270 251 234 229 236 241 235 228 225 222 221 222 227 232 234 234 231 232 238 240 235 229 227 226 226 230 234 240 236 225 231 246 240 224 223 228 230 232 233 235 239 241 247 249 244 247 253 250 239 226 218 219 219 217 217 216 216 217 218 220 220 219
281 281 281 279 278 276 269 266 269 264 256 257 264 267 270 273 271 271 280 283 276 274 275 269 263 271 275 252 232 231 236 235 231 230 225 219 219 221 225 228 227 229 228 226 233 237 231 226 224 222 225 229 229 228 224 220 230 238 229 215 218 222 225 229 232 235 239 242 247 249 244 240 241 235 226 217 215 218 217 216 217 216 216 216 217 219 216 214
281 280 279 277 276 273 268 265 263 259 258 262 267 267 267 269 266 270 277 272 271 274 272 265 262 273 279 254 238 239 238 232 230 231 221 216 219 221 224 226 223 225 229 228 231 235 234 228 222 220 224 225 224 223 218 215 226 231 221 218 225 228 229 232 232 232 234 235 238 244 241 231 233 231 219 213 216 218 218 217 216 217 216 216 217 216 213 216
281 279 278 277 275 272 268 264 261 259 261 265 267 265 263 262 264 272 274 267 269 274 270 263 262 271 274 260 249 244 234 230 229 225 218 216 218 219 221 223 221 224 233 237 236 236 238 233 226 223 221 218 219 224 220 214 222 231 227 226 233 240 240 238 237 230 230 234 235 239 236 221 226 231 217 211 216 217 218 219 218 218 217 217 218 216 215 218
281 279 277 276 273 271 268 265 262 259 260 265 266 263 257 257 262 264 263 265 270 273 271 264 262 270 273 262 253 243 230 228 224 216 217 217 214 216 218 220 222 226 234 240 239 239 239 235 231 227 220 215 218 228 231 226 227 235 235 229 232 242 240 241 244 231 225 232 234 236 231 213 215 226 222 220 224 222 220 220 220 219 218 218 218 217 219 219
282 279 277 274 270 267 264 263 263 262 263 264 264 258 248 254 261 254 259 271 274 271 268 261 259 268 273 263 248 239 228 223 220 214 217 216 212 214 217 218 220 224 233 235 235 239 237 232 232 229 222 216 218 231 239 236 230 229 228 221 223 234 235 236 240 230 227 229 227 230 226 214 218 224 225 228 230 229 227 225 224 221 218 216 215 218 221 218
284 281 278 273 267 263 262 263 265 265 264 260 259 254 245 252 259 253 259 267 266 268 267 263 263 266 266 261 249 240 228 221 220 216 217 215 213 216 219 221 218 218 227 228 229 235 237 237 232 225 224 217 213 223 231 230 224 220 220 215 215 222 227 235 238 233 233 230 225 227 222 219 225 226 227 232 233 233 231 226 223 220 219 221 221 226 229 223
285 282 276 268 264 263 263 264 263 261 260 256 253 251 245 251 259 259 262 262 261 266 268 265 266 265 258 249 247 242 229 224 220 214 214 213 212 216 220 223 220 217 221 222 225 227 227 235 227 217 220 216 211 217 220 220 221 223 226 220 218 219 219 229 232 228 232 227 224 227 221 217 221 226 230 231 232 235 228 220 217 220 224 226 229 233 230 222
285 279 270 263 263 264 262 259 258 257 256 255 254 251 246 252 260 261 262 262 263 266 267 265 261 259 254 245 244 241 229 226 223 216 216 214 213 216 218 221 220 216 216 219 227 227 223 230 226 218 216 210 213 221 217 216 225 229 227 222 224 223 218 225 227 223 225 222 223 225 223 222 223 228 233 228 231 237 227 216 212 215 220 220 227 227 214 208
282 274 263 259 262 263 258 253 253 255 254 255 258 255 251 255 259 258 260 263 265 266 268 267 254 247 250 245 243 245 234 227 224 221 221 219 218 219 220 223 221 218 217 218 224 227 223 229 229 222 218 214 216 222 219 218 222 225 221 219 225 222 213 219 227 230 225 220 226 225 225 232 229 228 233 229 231 237 233 226 215 210 210 209 216 217 208 209
279 271 260 258 261 259 253 249 253 259 259 259 259 257 257 259 257 256 262 265 264 264 262 259 250 242 244 243 243 246 239 231 227 224 224 224 222 220 220 224 223 221 222 222 226 227 222 228 231 220 220 224 222 218 224 225 218 217 221 221 222 220 216 218 224 236 231 225 233 230 227 232 227 226 234 234 234 237 237 233 224 217 212 208 215 217 214 216
273 267 260 260 258 253 248 249 258 266 267 265 265 265 263 262 259 258 263 265 263 262 255 249 246 241 241 243 244 244 239 234 230 227 226 227 226 221 220 225 226 226 225 221 226 230 223 228 235 224 219 229 226 217 227 236 226 221 222 221 219 220 224 223 222 228 228 229 239 238 233 231 227 230 239 239 239 241 240 235 230 224 216 214 219 219 217 219
263 260 262 262 256 249 248 255 267 273 274 269 268 269 266 265 264 262 264 265 261 258 253 247 243 241 242 242 242 242 237 232 230 228 228 229 229 227 224 226 228 231 228 220 222 228 223 224 233 230 222 225 226 221 224 232 231 226 224 226 227 223 221 221 222 224 223 225 234 238 239 235 230 232 238 241 243 241 238 234 230 226 225 228 229 225 225 227
254 254 261 263 255 246 250 266 277 278 276 271 268 269 269 268 268 266 266 263 258 255 250 245 242 242 242 241 239 238 235 231 230 230 229 228 230 231 229 227 227 231 229 221 221 225 224 223 227 231 229 223 222 224 223 222 222 221 222 225 226 224 222 221 225 228 222 222 227 230 237 239 234 233 236 242 243 237 232 228 227 230 234 238 237 232 234 237
250 253 260 262 253 248 260 278 283 280 279 277 275 274 275 274 271 270 267 261 256 254 248 242 241 241 240 239 236 235 236 235 231 229 228 228 228 229 228 224 224 228 226 221 221 223 223 222 223 229 234 229 226 226 221 219 219 220 222 223 222 220 219 221 230 233 227 225 224 223 233 241 237 233 235 239 238 232 227 222 225 234 237 237 235 235 240 243
245 252 260 260 253 255 271 285 286 286 284 283 283 280 280 279 273 269 267 262 257 254 249 244 242 239 237 235 233 232 235 235 232 230 228 227 225 227 231 228 222 221 220 220 223 223 221 220 221 227 232 230 231 229 222 219 219 220 224 225 224 224 221 220 228 231 227 228 229 226 233 242 239 232 233 236 233 231 230 225 223 230 236 235 233 234 238 237
239 249 260 261 257 265 285 293 295 296 289 289 291 287 284 281 274 272 270 265 259 254 250 246 242 238 235 234 232 231 232 232 232 232 230 229 228 231 237 234 223 219 220 221 223 222 220 220 218 225 233 234 233 231 225 222 219 221 230 229 227 231 227 221 225 228 223 224 228 231 237 242 239 232 230 230 229 229 233 231 226 229 236 236 233 235 236 231
232 247 260 267 266 273 289 292 293 298 297 301 303 295 289 283 277 275 270 263 258 252 249 248 243 238 236 235 231 230 230 229 230 232 229 229 230 233 239 234 221 221 224 223 223 222 222 221 217 219 229 234 235 234 230 228 225 223 229 231 231 234 231 226 228 229 226 225 224 226 235 239 234 229 226 223 223 225 229 232 232 233 236 235 235 239 240 231
233 252 265 278 278 278 287 288 289 297 303 309 308 301 296 288 280 274 264 259 257 251 247 247 243 236 235 235 231 230 229 226 227 230 229 230 232 232 238 235 222 220 225 227 227 223 222 224 222 219 221 224 228 232 230 229 230 228 230 234 235 235 236 232 228 227 229 229 226 226 231 233 228 225 223 220 220 223 226 231 236 239 240 238 238 241 240 230
234 258 270 286 297 295 293 295 304 310 310 315 313 306 302 295 288 279 264 258 259 257 249 245 244 236 233 233 230 229 229 227 226 227 227 229 229 230 236 236 226 221 222 228 233 226 223 228 227 223 223 225 227 230 230 227 227 230 234 238 239 239 241 235 228 230 230 228 231 234 232 226 222 221 220 220 222 226 229 233 238 245 248 246 243 241 236 223
241 263 265 277 297 306 306 308 322 324 317 320 322 316 310 304 299 289 272 260 262 263 251 243 242 235 232 232 228 226 228 227 226 227 228 228 226 230 235 231 229 228 223 229 239 229 223 230 230 225 227 230 230 231 231 228 227 228 232 237 241 244 244 236 232 235 230 225 232 236 230 223 220 219 219 222 225 228 233 238 242 246 249 247 241 228 211 202
249 260 259 271 289 298 308 314 325 333 328 322 322 324 321 316 311 296 279 273 269 263 250 243 243 234 231 229 223 224 227 225 224 225 227 228 226 231 235 227 227 231 224 227 237 228 223 230 230 225 227 231 231 230 228 226 227 229 230 235 241 245 245 240 238 238 231 228 232 229 221 221 223 222 223 225 226 226 230 236 239 243 246 249 248 233 215 215
238 243 264 297 302 289 299 311 326 346 340 323 323 332 331 326 322 297 279 289 282 263 242 241 248 243 234 226 216 218 224 222 223 225 224 225 223 226 233 229 229 235 230 228 235 231 228 231 230 226 225 230 233 233 228 224 227 232 234 237 241 242 243 242 240 238 232 230 230 221 217 226 231 228 224 223 226 226 226 229 234 239 239 241 250 245 225 216
216 225 255 322 346 331 332 337 346 355 344 333 335 341 340 338 333 307 289 304 291 268 246 242 253 249 237 225 215 215 219 216 218 223 224 225 226 226 230 231 232 237 236 231 234 237 233 230 230 227 226 231 237 237 232 227 227 232 238 243 244 242 242 242 240 238 236 233 228 221 221 229 233 230 224 223 227 230 233 235 236 239 235 228 236 240 224 208
202 217 226 36 358 345 350 353 357 360 348 343 341 339 343 344 337 323 307 298 274 266 258 256 261 251 237 231 224 221 222 218 218 222 223 223 227 229 232 235 233 234 236 234 235 238 235 230 231 227 225 231 235 235 235 231 228 232 239 245 245 240 237 238 239 239 238 233 225 221 224 227 227 225 223 224 225 226 233 238 235 235 237 234 235 235 226 217
199 214 222 46 358 348 356 357 359 0 344 336 334 338 346 336 326 335 325 303 297 284 269 262 258 250 243 241 235 232 233 231 229 228 226 225 231 234 235 237 234 229 230 232 235 238 233 225 225 226 224 227 232 234 235 231 229 234 239 241 242 239 235 235 238 241 241 235 228 226 225 224 222 220 219 222 225 225 228 234 234 231 234 242 245 240 230 221